Weather in Buy

Russia / Republic of Buryatia     50°38′28″N   107°58′15″E
temp.,
°C
wind,
m/s
gust,
m/s
humid.,
%
clouds,
%
prec.,
mm/h
press.,
hPa
HPBL,
m
24 january, mon
mon2423:00−15w1197100 0.3 103114
02:00−15w1197100 0.5 103216
05:00−16wnw1197100 0.3 103111
08:00−17wsw1198100 0.4 103211
11:00−14wsw1291100 0.1 1032223
14:00−12wsw238699 0.3 1031495
17:00−13wsw239499 0.1 103179
20:00−16wsw129899 0.2 103332
25 january, tue
tue2523:00−17wsw229899 0.1 103440
02:00−17wsw2298100 0.3 103443
05:00−16wsw2497100 0.2 1034114
08:00−16wsw249796 0.4 1034130
11:00−14wsw369098 0.1 1034368
14:00−12w4781100 0.2 1033773
17:00−15wsw359498 0.1 1034148
20:00−20w1110076 0.1 103714
26 january, wed
wed2623:00−23wsw1110080 0.0 103911
02:00−21wsw11100100 0.0 103811
05:00−22w1110095 0.0 10399
08:00−24w1110082 0.0 10409
11:00−20sw129672 0.0 103998
14:00−16sw129058 0.0 1037206
17:00−19sw1110021 0.0 10389
20:00−25nw0110073 0.0 10419
27 january, thu
thu2723:00−26nne0110087 0.0 10439
02:00−26ne1110084 0.0 10439
05:00−27ne1110083 0.0 10439
08:00−29nne0110069 0.0 10459
11:00−22sw119530 0.0 104382
14:00−17sw118712 0.0 1040170
17:00−21wsw11995 0.0 10419
20:00−26nnw1110019 0.0 10449
28 january, fri
fri2823:00−27ne1110053 0.0 10449
02:00−27ne1110072 0.0 10459
05:00−28ne1110081 0.0 104411
08:00−27ene119994 0.0 104414
11:00−21e119492 0.0 104290
14:00−16ssw108675 0.0 1038171
17:00−19wsw119912 0.0 10389
20:00−25n019937 0.0 104110